Wetbulb
71.26 68.09 67.18 64.72 53.92 51.29 47.84 50.63 54.81 53.71 53.75 55.80 56.38 55.02 53.50 54.11 52.12 46.30 63.27 69.23 70.69 71.13 73.96 74.38 75.53 75.85 75.50 75.49 75.26 74.81 74.68 74.72 74.58 73.98 73.34 73.70 73.78 74.80 74.72 73.94 73.90 75.26 74.75 75.09 75.21 75.05 74.54 74.72 74.93
67.85 67.59 63.54 58.28 50.33 45.13 47.14 51.78 53.24 55.04 56.47 56.02 56.40 55.91 54.81 53.04 62.72 62.62 65.07 70.05 71.34 72.66 73.94 73.99 75.70 76.23 75.46 75.11 74.76 74.54 74.61 74.62 74.51 73.59 73.15 72.79 72.73 72.85 72.49 73.99 74.45 73.88 74.72 74.41 74.83 75.01 74.39 74.87 74.87
65.18 65.37 57.72 53.26 49.48 44.82 46.29 52.11 54.26 56.99 57.07 56.95 55.56 55.21 54.64 55.15 63.72 62.87 65.64 70.87 71.95 72.67 73.82 74.06 75.38 75.62 75.85 74.64 74.17 74.30 74.16 73.94 73.64 73.19 72.54 71.59 72.01 72.19 71.64 72.75 72.20 73.20 74.46 74.30 74.16 74.51 74.31 74.70 74.46
60.95 60.08 56.08 49.25 46.21 48.79 50.34 50.72 55.19 56.62 57.90 58.14 55.72 53.09 55.91 59.32 63.08 64.26 69.60 71.29 71.07 71.87 72.97 74.82 76.14 75.81 75.22 74.49 73.79 74.17 73.82 73.24 72.47 71.31 70.67 70.37 70.94 70.95 70.84 71.76 70.95 71.26 71.68 72.39 72.70 73.80 74.47 74.32 74.53
58.20 54.20 45.80 44.24 44.97 47.80 48.72 50.94 51.13 51.66 52.92 54.47 55.34 52.62 54.40 60.71 65.02 67.52 70.21 70.86 70.17 71.39 72.60 74.37 75.95 75.76 75.46 75.40 74.10 74.00 73.36 72.56 71.01 70.39 69.71 69.55 69.85 69.60 68.65 69.98 70.50 70.38 70.15 70.28 70.44 71.81 73.77 73.79 74.07
52.92 50.54 42.05 39.53 43.27 47.70 48.09 47.89 50.38 47.57 49.15 51.47 53.23 52.91 54.11 58.50 63.80 67.42 70.04 69.31 70.73 71.50 72.58 73.80 76.13 76.05 75.97 74.78 74.22 74.01 72.98 71.82 71.09 70.72 69.65 69.02 69.16 68.99 68.11 67.69 68.67 69.04 69.31 69.73 69.94 70.97 72.50 73.50 73.12
51.02 46.15 42.52 42.84 42.79 43.30 47.53 48.43 46.15 45.81 44.88 49.42 49.71 49.43 53.52 58.77 63.47 66.60 68.09 68.10 69.79 71.35 71.64 72.81 74.15 75.65 76.89 75.89 74.17 74.04 72.90 71.82 71.55 70.74 69.99 69.00 68.25 68.09 67.61 67.07 66.67 67.13 67.53 68.01 68.82 69.63 72.54 73.27 72.71
52.43 47.73 43.21 42.69 41.81 40.71 47.53 48.10 49.71 46.43 44.63 49.28 50.16 48.55 48.90 53.20 62.50 65.08 67.47 67.06 68.29 69.98 71.54 71.85 72.81 73.83 73.62 73.25 75.42 74.43 73.47 72.00 71.55 70.71 69.93 69.46 68.21 67.50 67.14 66.56 66.05 65.84 66.02 66.02 66.73 68.46 70.93 71.14 70.99
50.02 41.16 38.78 40.56 41.77 42.70 46.61 46.23 48.40 48.93 45.54 46.21 47.30 47.85 49.19 53.38 62.73 63.45 65.34 66.83 67.81 69.82 69.38 70.46 71.72 72.19 72.40 72.11 73.32 74.65 73.94 73.10 71.63 70.93 70.59 68.59 63.06 61.74 62.46 65.41 65.44 65.25 64.94 65.18 65.06 65.79 67.94 66.89 64.39
45.34 38.16 39.31 43.99 44.28 43.51 46.91 45.50 46.60 46.36 45.04 44.64 44.66 47.73 48.77 52.76 57.78 58.38 58.22 60.24 63.99 66.53 69.79 70.30 71.59 72.37 70.81 72.95 71.14 70.91 70.12 69.53 67.92 67.12 66.13 63.34 61.59 60.58 62.26 63.34 64.80 64.89 64.25 64.09 63.70 63.05 62.10 58.82 54.04
46.02 41.47 44.51 47.28 48.36 48.26 46.75 46.48 48.17 45.40 42.82 42.30 42.24 44.26 46.00 46.67 47.70 48.46 48.55 47.84 48.43 56.79 67.18 70.99 71.92 72.08 71.63 71.42 69.09 68.79 67.98 66.90 66.02 65.13 63.58 62.12 60.89 60.42 60.99 58.44 57.43 55.19 57.85 53.02 52.25 50.26 48.31 48.77 50.63
43.41 46.93 47.29 48.66 49.33 47.78 45.78 47.43 43.37 42.21 41.90 45.34 44.93 44.70 45.31 44.73 45.22 46.00 46.28 47.20 48.33 49.57 50.64 55.37 69.53 71.52 71.16 70.68 68.78 68.28 67.01 65.94 64.57 63.65 62.26 60.31 58.43 57.17 57.58 56.98 55.46 53.26 50.62 48.93 47.59 45.82 44.97 45.17 46.13
42.00 43.94 47.31 47.98 47.15 46.35 47.16 44.90 42.49 41.98 44.53 44.38 45.28 44.83 43.97 44.51 44.68 45.93 46.67 47.17 46.74 47.73 49.84 51.55 53.11 68.60 70.88 69.94 67.68 67.96 68.17 66.38 64.85 63.22 62.22 60.70 58.29 56.47 55.99 55.66 54.03 52.28 48.86 47.95 45.86 44.68 43.78 43.21 41.99
44.32 44.96 45.03 44.75 45.48 46.14 45.02 44.41 43.88 42.91 43.99 42.85 42.81 41.96 42.33 43.01 43.54 45.50 45.90 45.84 44.68 46.01 48.26 50.93 52.48 61.15 69.48 68.30 66.54 66.67 67.76 66.84 65.07 62.93 62.16 61.00 59.35 56.73 55.89 54.85 52.67 50.34 46.96 46.80 46.13 44.47 43.02 42.32 40.56
45.12 41.29 42.04 42.37 43.16 44.24 44.58 40.30 38.44 42.37 42.47 40.51 39.26 39.18 41.78 42.17 43.41 42.00 44.23 45.42 43.40 45.05 46.37 49.43 52.05 51.82 53.43 61.84 66.87 66.66 65.31 65.42 63.93 62.79 61.74 60.80 59.23 57.22 56.41 54.95 52.12 49.55 47.16 45.76 43.88 42.42 41.63 41.26 41.68
40.09 38.49 35.10 40.87 44.39 44.78 43.30 34.39 38.85 41.94 40.17 38.10 38.36 37.83 39.93 41.53 41.87 41.14 43.52 44.18 44.62 44.00 44.32 47.95 50.29 50.15 49.95 49.77 53.68 62.22 64.50 63.92 62.85 61.70 60.30 60.56 60.42 58.69 57.20 55.46 55.33 51.16 48.05 46.25 43.89 42.65 41.88 41.27 40.60
36.27 32.43 33.17 38.02 43.35 43.11 40.33 34.04 37.91 40.19 39.62 37.47 36.22 37.11 39.61 40.01 41.61 41.64 43.28 42.85 43.69 43.44 43.65 45.83 46.95 47.96 48.42 48.54 49.84 50.69 52.46 54.48 56.47 57.30 56.82 57.91 58.58 58.32 57.37 55.23 54.44 51.93 50.22 46.65 44.65 42.78 42.17 41.13 40.52
31.87 32.63 33.46 33.92 39.95 39.00 35.00 33.37 36.38 37.99 37.57 36.15 35.56 35.98 37.89 39.15 40.37 41.88 43.00 42.67 43.03 42.65 42.87 43.83 45.50 45.74 46.98 47.09 47.81 49.01 49.64 50.63 51.33 51.48 51.11 52.41 54.40 55.97 53.24 53.02 51.41 51.11 48.14 46.08 44.00 43.62 41.53 41.69 41.47
36.25 34.20 33.51 36.62 41.04 36.31 33.48 33.47 35.07 36.94 36.10 35.79 35.47 35.94 37.09 38.42 40.44 41.29 42.10 41.96 41.67 41.67 41.59 41.56 44.32 44.53 45.05 45.28 44.96 45.37 46.02 47.88 49.26 50.48 52.22 51.94 51.02 50.64 52.66 51.94 49.39 47.91 48.43 49.04 46.31 42.54 42.20 40.99 40.53
37.65 34.49 33.55 37.60 41.45 36.57 33.51 32.41 35.16 36.24 36.07 36.24 35.85 35.12 36.34 37.53 38.71 39.69 40.72 41.01 40.76 40.07 40.43 41.27 42.48 44.45 44.23 44.56 44.41 44.23 44.01 46.26 47.87 48.26 49.61 50.94 52.85 53.05 51.30 51.59 52.04 48.55 47.35 45.87 44.72 44.88 42.99 41.55 41.51
36.23 33.91 33.69 35.28 38.46 36.17 33.54 30.53 32.33 34.79 35.31 36.60 36.21 36.75 37.79 37.53 38.13 38.69 38.61 39.74 40.30 39.86 39.46 41.20 42.16 43.57 43.99 43.43 43.93 44.04 43.51 43.67 44.61 45.48 46.67 47.49 48.61 49.89 51.03 51.30 50.73 50.25 47.17 47.00 44.70 44.22 43.46 45.31 42.00
33.38 39.35 39.36 37.99 34.67 28.79 35.09 26.46 29.46 31.61 31.79 32.74 33.21 33.12 34.72 37.27 38.39 39.31 39.56 39.49 39.58 40.55 40.33 40.91 41.81 42.25 44.47 42.47 41.60 40.05 40.04 39.64 42.39 43.39 45.26 45.72 47.00 47.09 47.95 48.84 48.54 47.85 48.21 46.08 46.96 46.32 45.71 43.59 43.33
37.75 39.73 37.50 37.01 33.39 29.69 30.78 29.52 29.45 30.63 29.48 30.68 32.48 34.04 34.42 35.10 36.27 38.64 39.25 39.69 40.51 40.62 39.99 39.96 40.84 41.64 41.90 41.17 40.34 39.73 38.90 39.45 41.23 42.54 43.22 44.67 45.20 45.83 46.96 47.46 47.26 46.92 46.66 46.96 49.08 46.46 45.20 45.40 45.93
40.00 36.14 33.98 32.85 30.68 25.43 27.85 29.58 27.85 27.13 29.80 30.79 31.77 34.38 35.01 35.63 35.91 36.25 39.28 39.44 39.44 39.91 40.11 40.25 39.96 40.97 41.16 40.40 40.03 39.16 38.26 38.55 39.16 40.45 42.84 44.06 44.06 44.65 45.83 46.88 46.29 46.01 45.96 45.95 46.74 47.32 45.04 46.47 45.96
36.62 28.96 24.73 25.20 24.98 25.49 31.04 28.81 29.37 31.35 31.74 33.13 32.32 32.62 35.19 35.22 35.30 35.24 36.89 38.04 38.66 38.99 39.38 40.19 40.23 39.62 40.44 39.70 39.67 39.69 39.17 38.44 38.36 40.35 42.40 42.47 42.35 42.86 43.97 45.16 45.55 44.81 45.60 46.11 46.12 45.93 46.07 45.31 45.40
32.25 30.10 25.04 22.86 21.61 22.88 29.45 25.47 29.15 32.21 33.65 34.43 33.82 33.42 34.38 34.90 35.15 34.90 36.38 37.52 37.49 38.34 38.61 39.02 39.07 38.52 39.88 39.66 39.69 39.62 39.10 39.02 39.47 40.98 41.94 41.35 41.77 42.70 44.06 45.13 45.92 45.05 45.13 45.19 45.91 45.99 46.78 46.62 46.55
30.35 27.65 31.17 25.75 22.85 20.75 23.90 27.91 29.48 30.82 31.45 32.50 31.86 33.16 33.54 34.55 34.86 35.24 37.16 37.31 37.36 37.79 38.29 38.56 39.02 39.40 39.58 40.26 40.12 39.16 38.87 38.70 39.06 40.03 40.75 41.09 41.69 44.22 44.27 45.21 45.26 44.98 44.92 44.91 44.52 45.37 46.25 47.14 47.05
32.03 34.19 26.59 24.16 20.73 19.43 20.52 21.97 25.65 27.29 28.94 31.10 30.86 31.55 33.03 34.42 34.73 35.37 36.35 37.30 38.03 38.32 38.91 38.08 38.73 38.58 39.83 40.06 39.81 40.51 39.15 39.18 39.62 39.80 39.24 40.08 41.64 42.62 43.46 44.11 44.71 44.80 44.91 44.50 43.90 44.60 46.33 46.24 46.97
29.23 27.47 27.37 26.33 23.30 20.12 16.89 22.34 28.11 30.81 31.17 30.47 31.23 32.50 33.58 33.77 34.74 35.71 36.30 37.29 38.57 38.50 38.30 40.20 40.20 39.76 40.31 40.37 40.58 39.93 40.05 39.84 39.49 38.68 39.35 39.71 40.83 41.11 42.39 44.25 44.97 44.76 44.75 44.42 44.07 44.18 45.02 45.43 46.26
29.69 26.85 27.08 21.76 20.84 18.91 16.00 20.34 30.96 30.39 32.04 32.50 32.25 33.50 33.47 34.65 36.14 36.37 37.49 38.83 38.44 39.14 39.93 40.31 40.71 40.08 40.76 41.13 40.55 41.18 41.07 40.79 38.89 38.20 38.91 39.24 39.23 40.34 41.71 43.83 44.30 44.73 45.03 44.56 43.92 43.50 44.61 44.33 44.89
MSLP
1011.79 1011.69 1011.87 1012.29 1013.58 1014.31 1014.43 1014.06 1013.23 1012.45 1011.83 1011.34 1011.20 1011.34 1011.59 1011.85 1012.49 1013.52 1013.13 1013.26 1013.34 1013.66 1013.95 1014.17 1014.42 1014.57 1014.80 1015.05 1015.33 1015.57 1015.75 1015.86 1015.95 1016.05 1016.13 1016.19 1016.16 1016.09 1016.04 1015.93 1015.96 1015.96 1016.02 1015.94 1016.00 1015.97 1016.00 1016.02 1016.06
1011.78 1011.77 1012.18 1012.94 1014.32 1015.05 1014.83 1013.77 1012.99 1012.10 1011.56 1011.32 1011.22 1011.27 1011.50 1011.85 1012.14 1012.71 1013.03 1013.10 1013.09 1013.42 1013.91 1014.20 1014.43 1014.72 1014.99 1015.28 1015.56 1015.75 1015.93 1016.04 1016.11 1016.20 1016.34 1016.42 1016.41 1016.37 1016.33 1016.31 1016.22 1016.22 1016.28 1016.33 1016.20 1016.23 1016.27 1016.28 1016.38
1011.92 1012.13 1013.08 1014.02 1015.25 1015.19 1014.51 1013.56 1012.85 1011.96 1011.46 1011.28 1011.34 1011.34 1011.54 1011.73 1011.97 1012.31 1012.47 1013.02 1013.30 1013.59 1013.69 1014.05 1014.35 1014.83 1015.10 1015.32 1015.58 1015.85 1016.00 1016.13 1016.28 1016.41 1016.50 1016.61 1016.63 1016.66 1016.76 1016.63 1016.44 1016.42 1016.50 1016.60 1016.57 1016.51 1016.58 1016.57 1016.60
1012.40 1012.85 1014.18 1014.67 1015.23 1014.71 1014.16 1013.40 1012.82 1012.06 1011.41 1011.41 1011.48 1011.68 1011.69 1011.60 1011.88 1012.03 1012.36 1012.95 1013.50 1013.99 1014.22 1014.41 1014.51 1014.89 1015.15 1015.36 1015.66 1015.89 1016.13 1016.32 1016.45 1016.57 1016.68 1016.78 1016.85 1016.99 1017.10 1016.91 1016.78 1016.81 1016.94 1016.91 1016.87 1016.88 1016.82 1016.85 1016.76
1013.19 1014.04 1015.00 1015.41 1015.18 1014.46 1013.83 1013.35 1012.90 1012.50 1012.17 1011.96 1011.83 1011.93 1011.89 1011.97 1012.28 1012.49 1012.77 1013.08 1013.46 1014.05 1014.17 1014.38 1014.63 1014.85 1015.01 1015.28 1015.59 1015.89 1016.09 1016.29 1016.53 1016.71 1016.84 1016.90 1016.95 1017.11 1017.30 1017.28 1017.18 1017.26 1017.29 1017.25 1017.27 1017.25 1017.07 1017.10 1017.09
1014.11 1014.93 1015.73 1015.90 1015.22 1014.35 1013.79 1013.49 1013.09 1012.97 1012.68 1012.45 1012.46 1012.59 1012.51 1012.56 1012.52 1012.88 1013.01 1013.29 1013.49 1013.95 1014.22 1014.35 1014.41 1014.69 1015.01 1015.29 1015.60 1015.82 1016.02 1016.20 1016.44 1016.70 1016.95 1017.03 1017.07 1017.18 1017.37 1017.50 1017.56 1017.53 1017.58 1017.60 1017.62 1017.40 1017.23 1017.34 1017.41
1014.58 1015.63 1016.04 1015.77 1015.23 1014.55 1014.02 1013.43 1013.41 1013.35 1013.17 1013.05 1013.17 1013.26 1013.05 1012.91 1013.02 1013.09 1013.31 1013.61 1013.82 1013.97 1014.29 1014.55 1014.61 1014.75 1014.94 1015.17 1015.41 1015.68 1015.93 1016.12 1016.38 1016.63 1016.86 1017.10 1017.26 1017.34 1017.51 1017.66 1017.76 1017.76 1017.79 1017.89 1017.96 1017.64 1017.38 1017.40 1017.54
1014.94 1015.76 1016.20 1015.80 1015.41 1014.73 1014.29 1013.92 1013.69 1013.77 1013.73 1013.40 1013.41 1014.02 1014.05 1013.65 1013.53 1013.61 1013.81 1014.07 1014.21 1014.28 1014.18 1014.42 1014.68 1014.85 1015.05 1015.16 1015.30 1015.59 1015.87 1016.17 1016.37 1016.55 1016.83 1017.05 1017.29 1017.50 1017.61 1017.77 1017.89 1018.01 1017.98 1018.01 1018.07 1018.01 1017.89 1017.83 1017.79
1014.99 1015.91 1016.32 1015.76 1015.45 1014.84 1014.50 1014.47 1014.07 1014.05 1014.51 1014.47 1014.48 1015.45 1015.80 1014.32 1014.20 1014.35 1014.68 1014.85 1014.95 1015.06 1015.12 1014.85 1014.86 1015.00 1015.09 1015.22 1015.33 1015.42 1015.56 1015.65 1015.93 1016.29 1016.60 1016.92 1017.41 1017.64 1017.75 1017.83 1017.94 1018.00 1018.10 1018.09 1018.16 1018.24 1018.11 1018.15 1018.38
1015.41 1016.32 1016.07 1015.60 1015.23 1015.05 1014.85 1014.89 1014.91 1015.05 1015.61 1015.68 1015.83 1016.45 1016.30 1015.46 1015.28 1015.66 1015.97 1016.01 1015.79 1015.62 1015.46 1015.50 1015.42 1015.66 1015.66 1015.43 1015.49 1015.54 1015.68 1015.80 1015.97 1016.12 1016.33 1016.74 1017.10 1017.39 1017.57 1017.73 1017.78 1017.85 1018.01 1018.18 1018.25 1018.30 1018.44 1018.67 1018.88
1015.74 1015.98 1015.90 1015.48 1015.27 1015.23 1015.22 1015.21 1015.49 1016.37 1017.43 1018.82 1018.75 1018.49 1017.76 1016.90 1016.78 1016.96 1017.22 1017.34 1017.04 1016.29 1015.63 1015.40 1015.36 1015.31 1015.60 1015.68 1015.89 1016.11 1016.05 1016.04 1016.25 1016.40 1016.51 1016.68 1016.90 1017.12 1017.28 1017.59 1017.77 1017.96 1018.05 1018.35 1018.54 1018.70 1018.91 1018.97 1019.03
1015.92 1015.82 1015.87 1015.56 1015.40 1015.59 1015.63 1015.69 1017.88 1018.45 1020.34 1020.28 1019.79 1019.38 1018.72 1018.29 1018.31 1018.34 1018.13 1017.91 1017.49 1017.01 1016.61 1015.93 1015.14 1014.94 1015.13 1015.39 1015.69 1016.00 1016.37 1016.68 1016.87 1017.06 1017.30 1017.70 1017.85 1017.69 1017.73 1017.88 1017.98 1018.11 1018.21 1018.39 1018.57 1018.85 1018.95 1019.02 1019.09
1016.03 1016.09 1015.90 1015.65 1015.66 1015.67 1015.90 1017.19 1018.88 1020.33 1021.04 1020.88 1020.36 1019.89 1019.82 1019.65 1019.53 1019.28 1019.01 1018.57 1018.19 1017.62 1017.11 1016.34 1015.66 1014.97 1014.65 1015.05 1015.40 1015.71 1015.99 1016.35 1016.66 1016.83 1017.04 1017.40 1017.76 1018.11 1018.24 1018.05 1018.08 1018.13 1018.30 1018.40 1018.58 1018.70 1018.85 1019.02 1019.11
1016.42 1016.35 1016.17 1015.81 1015.97 1016.06 1016.50 1018.13 1018.48 1021.22 1021.62 1021.24 1020.97 1021.01 1020.99 1020.62 1020.53 1020.00 1019.46 1019.37 1018.84 1018.43 1017.65 1016.87 1015.95 1015.10 1014.90 1015.17 1015.34 1015.60 1015.80 1016.05 1016.37 1016.68 1016.87 1017.06 1017.36 1017.82 1018.02 1018.09 1018.12 1018.24 1018.25 1018.30 1018.41 1018.58 1018.72 1018.93 1019.16
1016.61 1016.72 1016.37 1016.39 1016.43 1016.72 1016.97 1019.06 1021.31 1021.82 1022.16 1022.11 1022.16 1021.96 1021.76 1021.47 1021.07 1020.79 1020.56 1020.17 1019.82 1019.16 1018.48 1017.56 1016.88 1016.33 1015.93 1015.68 1015.39 1015.45 1015.54 1015.77 1016.05 1016.15 1016.13 1016.17 1016.51 1017.01 1017.34 1017.75 1017.98 1017.94 1018.13 1018.23 1018.48 1018.63 1018.67 1018.80 1018.95
1017.31 1017.41 1017.50 1017.06 1016.89 1017.18 1017.48 1020.85 1022.43 1022.61 1022.48 1022.92 1022.93 1022.67 1022.38 1022.09 1021.78 1021.37 1020.89 1020.53 1020.14 1019.65 1019.05 1018.38 1017.77 1017.20 1016.91 1016.70 1016.35 1015.87 1015.78 1015.78 1015.72 1015.76 1015.79 1015.85 1016.00 1016.18 1016.38 1016.82 1016.90 1017.30 1017.84 1018.07 1018.35 1018.52 1018.69 1018.74 1018.80
1018.50 1018.42 1018.20 1017.84 1018.10 1018.25 1019.16 1021.60 1022.72 1022.93 1022.93 1023.32 1023.41 1023.30 1022.85 1022.46 1021.98 1021.66 1021.22 1020.88 1020.52 1020.12 1019.63 1019.01 1018.43 1017.96 1017.62 1017.37 1017.19 1017.02 1016.79 1016.54 1016.32 1016.14 1016.09 1016.09 1016.06 1016.18 1016.37 1016.47 1016.40 1016.67 1017.15 1017.61 1017.89 1018.24 1018.45 1018.67 1018.73
1018.74 1018.77 1018.75 1018.78 1019.07 1019.87 1021.07 1022.43 1023.03 1023.23 1023.37 1023.62 1023.62 1023.51 1023.17 1022.75 1022.51 1022.11 1021.66 1021.30 1020.82 1020.44 1020.02 1019.55 1019.11 1018.75 1018.31 1017.95 1017.58 1017.32 1017.23 1017.01 1016.73 1016.48 1016.14 1015.98 1015.95 1015.89 1016.05 1016.09 1016.34 1016.78 1017.22 1017.49 1017.72 1017.60 1017.92 1018.15 1018.30
1018.50 1018.81 1019.17 1019.15 1019.59 1020.88 1021.97 1022.76 1023.13 1023.36 1023.59 1023.72 1023.77 1023.58 1023.32 1022.94 1022.63 1022.32 1021.99 1021.62 1021.17 1020.68 1020.33 1019.99 1019.59 1019.27 1018.83 1018.52 1018.47 1018.21 1018.15 1017.64 1017.27 1016.88 1016.48 1016.16 1015.83 1015.65 1015.78 1015.93 1016.06 1016.16 1016.41 1016.62 1017.15 1017.57 1017.60 1017.89 1018.18
1018.55 1018.85 1019.28 1019.51 1020.03 1021.09 1022.65 1023.06 1023.17 1023.35 1023.57 1023.63 1023.68 1023.52 1023.36 1023.14 1022.91 1022.61 1022.30 1021.83 1021.49 1021.16 1020.81 1020.37 1020.00 1019.61 1019.28 1019.00 1018.84 1018.64 1018.47 1018.05 1017.76 1017.34 1016.83 1016.39 1015.97 1015.54 1015.31 1015.50 1015.42 1015.68 1016.05 1016.13 1016.35 1016.80 1017.32 1017.41 1017.56
1018.75 1019.08 1019.52 1020.23 1020.71 1021.68 1022.68 1023.23 1023.19 1023.30 1023.43 1023.47 1023.49 1023.50 1023.40 1023.36 1023.19 1022.88 1022.49 1022.11 1021.73 1021.44 1021.19 1020.73 1020.24 1019.82 1019.48 1019.25 1018.97 1018.76 1018.55 1018.22 1017.96 1017.53 1017.13 1016.76 1016.23 1015.79 1015.41 1015.22 1015.20 1014.91 1015.43 1015.68 1015.34 1015.91 1016.47 1016.69 1017.06
1019.11 1019.25 1019.81 1020.47 1021.39 1022.14 1022.55 1023.40 1023.10 1023.22 1023.41 1023.53 1023.57 1023.62 1023.65 1023.42 1023.28 1022.99 1022.62 1022.25 1021.96 1021.57 1021.19 1020.81 1020.50 1020.18 1019.83 1019.61 1019.44 1019.40 1019.17 1018.97 1018.35 1017.97 1017.52 1017.17 1016.37 1015.89 1015.54 1015.24 1014.97 1014.99 1015.11 1015.33 1014.63 1015.22 1015.11 1015.93 1016.53
1019.39 1019.70 1020.26 1020.75 1021.53 1022.28 1022.76 1023.80 1022.67 1023.34 1023.63 1023.59 1023.53 1023.56 1023.58 1023.39 1023.20 1022.86 1022.51 1022.32 1021.80 1021.53 1021.37 1021.00 1020.61 1020.16 1019.79 1019.48 1019.30 1019.24 1019.09 1018.72 1018.09 1017.63 1017.29 1016.91 1016.48 1015.89 1015.49 1015.15 1014.95 1014.84 1014.60 1014.48 1014.56 1014.47 1014.72 1014.73 1014.98
1019.78 1020.17 1020.97 1021.63 1022.25 1022.77 1022.74 1023.49 1023.03 1023.35 1023.10 1023.47 1023.45 1023.45 1023.55 1023.28 1023.02 1022.67 1022.32 1022.10 1021.84 1021.52 1021.29 1020.97 1020.71 1020.19 1019.59 1019.29 1019.03 1018.90 1018.76 1018.43 1018.12 1017.62 1017.26 1016.79 1016.37 1015.82 1015.18 1014.82 1014.69 1014.48 1014.36 1014.22 1014.00 1013.86 1013.89 1014.06 1014.06
1020.45 1021.28 1022.04 1022.74 1023.22 1023.42 1023.11 1023.58 1022.04 1022.49 1022.79 1023.10 1023.33 1023.54 1023.48 1023.29 1023.14 1022.90 1022.47 1022.21 1021.99 1021.63 1021.26 1020.90 1020.52 1020.18 1019.53 1019.13 1018.74 1018.43 1018.18 1017.88 1017.62 1017.20 1016.90 1016.65 1016.21 1015.62 1014.99 1014.51 1014.33 1014.12 1013.79 1013.56 1013.47 1013.38 1013.29 1013.26 1013.24
1021.71 1022.31 1023.38 1024.31 1024.96 1024.50 1023.71 1023.13 1021.95 1022.20 1022.66 1022.89 1023.22 1023.54 1023.57 1023.44 1023.14 1022.91 1022.48 1022.29 1022.05 1021.65 1021.19 1020.73 1020.30 1019.79 1019.15 1018.68 1018.26 1017.87 1017.57 1017.32 1016.97 1016.56 1016.17 1015.91 1015.56 1015.03 1014.51 1014.16 1013.80 1013.58 1013.34 1013.06 1012.85 1012.69 1012.57 1012.46 1012.34
1022.39 1023.09 1024.06 1024.89 1025.83 1026.05 1024.06 1022.93 1022.59 1022.73 1023.09 1023.18 1023.43 1023.66 1023.65 1023.44 1023.07 1022.72 1022.32 1022.20 1021.92 1021.32 1020.74 1020.23 1019.71 1019.18 1018.57 1018.03 1017.64 1017.23 1016.84 1016.50 1016.12 1015.67 1015.35 1015.05 1014.61 1014.23 1013.90 1013.61 1013.35 1013.03 1012.86 1012.53 1012.25 1012.09 1011.78 1011.68 1011.47
1022.54 1023.69 1024.78 1025.97 1026.79 1026.68 1024.88 1024.03 1022.66 1022.93 1023.09 1023.32 1023.51 1023.68 1023.42 1023.23 1022.92 1022.68 1022.36 1021.98 1021.35 1020.73 1020.08 1019.59 1019.13 1018.65 1017.88 1017.33 1016.88 1016.40 1015.92 1015.54 1015.23 1014.84 1014.53 1014.24 1013.85 1013.53 1013.23 1013.02 1012.75 1012.48 1012.13 1011.80 1011.62 1011.49 1011.15 1010.93 1010.64
1023.79 1024.54 1025.77 1026.72 1027.46 1027.59 1026.61 1024.14 1021.61 1021.85 1022.33 1023.14 1023.32 1023.29 1023.01 1022.94 1022.69 1022.48 1021.97 1021.36 1020.64 1020.09 1019.53 1018.85 1018.24 1017.74 1017.15 1016.42 1015.87 1015.56 1015.01 1014.63 1014.30 1013.97 1013.65 1013.34 1012.95 1012.75 1012.53 1012.27 1012.06 1011.78 1011.43 1011.00 1010.91 1010.78 1010.64 1010.41 1010.00
1024.54 1025.17 1026.14 1027.64 1028.32 1028.54 1027.93 1023.68 1021.84 1021.86 1022.04 1022.58 1022.84 1022.76 1022.75 1022.61 1022.29 1021.85 1021.19 1020.68 1020.15 1019.43 1018.66 1018.06 1017.35 1016.85 1016.32 1015.89 1015.12 1014.67 1014.37 1013.96 1013.51 1012.95 1012.61 1012.40 1012.18 1011.83 1011.59 1011.35 1011.23 1010.94 1010.57 1010.22 1010.13 1010.13 1009.94 1009.87 1009.57
Wind_Speed
7 4 2 4 6 6 2 3 2 3 3 1 2 1 3 2 3 3 4 8 5 10 9 10 14 13 13 11 9 8 7 6 6 5 4 4 3 4 5 4 5 6 7 8 8 8 9 9 10
4 2 4 3 7 5 6 4 3 4 0 3 1 2 3 1 2 2 4 7 9 12 8 7 14 12 12 10 8 7 6 5 5 4 3 2 2 3 3 3 5 5 7 6 7 7 8 8 7
3 3 5 5 3 2 3 4 6 5 1 1 1 1 3 1 1 4 3 9 8 9 8 9 15 13 11 10 9 7 6 5 5 4 3 2 3 2 1 1 2 3 7 6 6 6 7 6 4
3 5 5 6 2 2 2 5 4 6 4 2 0 2 2 2 1 3 11 12 9 6 5 10 14 13 12 11 10 8 6 6 5 4 4 3 3 3 1 0 1 2 5 5 4 5 6 5 4
5 4 5 3 3 3 3 4 6 4 4 4 2 2 2 3 6 7 11 11 11 7 6 8 15 15 14 12 11 9 8 7 6 5 4 3 3 3 1 1 2 2 2 1 2 4 2 4 4
5 3 5 1 3 5 5 4 3 4 5 7 6 4 3 3 2 6 8 8 8 10 8 7 15 16 14 13 12 11 10 9 8 7 5 4 3 3 2 1 2 2 2 3 5 5 4 5 2
6 4 3 3 3 4 3 8 4 4 6 4 3 3 6 6 3 5 6 6 7 6 6 5 6 10 14 13 13 13 12 11 10 8 7 5 3 3 2 1 1 1 2 2 4 6 6 5 3
5 5 3 2 1 3 5 7 1 3 4 9 3 4 5 6 1 6 6 5 5 5 6 6 5 5 6 7 14 15 13 11 10 10 8 7 5 4 3 2 1 1 1 1 2 4 7 7 9
3 5 0 2 3 3 4 6 3 1 2 4 5 9 10 13 6 6 5 4 3 1 2 1 4 5 5 5 7 14 16 16 15 12 11 8 3 2 3 3 2 2 2 2 2 2 6 7 8
6 4 4 3 2 3 5 3 5 5 7 7 5 15 16 12 11 10 9 6 4 3 3 2 2 3 3 5 5 5 5 4 5 5 6 5 6 5 5 4 5 4 4 3 3 2 4 5 3
2 3 3 1 3 3 4 6 4 6 7 8 5 8 13 15 16 13 10 6 6 7 3 4 5 5 4 4 2 2 2 2 2 5 5 5 4 4 3 3 2 2 1 1 2 3 3 3 1
2 1 2 4 2 6 5 5 9 11 1 3 6 4 11 17 15 12 13 11 11 9 9 10 6 8 7 4 3 2 1 1 1 1 1 2 2 2 3 3 3 3 2 3 2 0 1 1 1
1 3 4 5 7 4 3 10 10 9 5 5 10 15 16 14 12 10 10 12 10 13 12 11 9 7 9 8 4 3 3 2 2 2 3 3 3 3 2 3 3 3 3 3 3 2 1 1 0
2 4 7 4 6 5 3 8 7 7 6 12 14 13 12 14 11 12 14 14 13 10 13 11 14 9 2 4 4 3 3 3 4 3 4 5 4 4 4 4 4 4 4 3 4 4 3 2 2
2 6 5 5 5 3 3 8 9 2 3 12 11 9 11 10 11 10 8 10 8 7 9 14 14 13 12 7 3 2 4 4 4 4 7 8 7 6 6 5 4 4 4 5 3 2 2 3 2
4 5 3 3 8 5 4 2 7 5 7 9 9 8 8 9 8 7 7 7 8 7 10 10 11 12 11 9 8 4 2 3 3 4 4 7 8 9 8 7 7 5 4 4 3 3 3 3 3
7 1 2 7 5 2 8 3 5 6 5 8 7 7 7 7 9 8 8 7 8 8 8 10 10 12 10 9 6 7 8 6 4 3 3 5 6 6 7 6 5 5 5 5 4 4 3 3 3
1 1 2 4 5 10 8 4 2 4 5 6 5 6 6 6 6 6 8 8 7 7 7 7 7 9 8 6 5 4 4 5 5 5 4 5 4 6 6 5 5 5 4 4 3 5 4 3 4
2 1 3 4 1 7 3 5 2 1 3 5 4 4 5 5 6 5 6 7 8 7 8 8 7 7 5 4 4 4 4 4 4 5 6 6 5 4 6 5 5 5 7 8 6 2 6 4 3
1 1 4 3 3 6 3 3 2 1 1 1 2 1 3 3 6 6 7 7 7 6 8 8 7 6 4 3 2 1 2 3 3 4 5 6 6 5 3 5 6 7 5 6 7 7 3 3 6
3 3 2 3 4 5 7 3 5 2 2 1 2 3 4 4 5 6 7 6 6 7 7 6 6 5 3 4 3 3 3 3 4 4 4 5 6 6 6 5 4 4 6 7 7 8 8 7 4
3 2 1 2 2 3 4 7 5 5 4 2 4 5 7 7 6 6 6 6 6 6 7 7 7 6 4 6 4 4 2 2 3 3 3 6 7 7 6 6 5 4 4 6 5 7 9 5 5
6 2 2 1 4 2 2 2 5 6 4 4 4 5 6 7 7 9 8 7 8 7 7 7 7 7 6 5 3 2 3 3 3 4 6 6 6 6 6 6 5 5 4 5 8 6 8 8 8
4 2 5 4 3 2 2 4 4 6 8 4 2 5 6 7 8 9 8 7 7 7 7 7 8 8 8 6 7 5 6 6 4 4 4 5 4 5 7 6 5 5 5 6 6 8 8 10 10
8 7 5 6 5 5 1 0 8 7 8 7 3 4 7 8 8 9 8 7 7 8 9 8 8 9 9 8 8 8 8 7 7 6 4 6 4 4 7 7 6 4 5 6 6 6 8 10 10
4 4 5 4 3 6 4 7 5 7 8 7 3 4 7 8 8 9 7 7 7 8 9 9 10 10 10 9 9 7 8 5 5 6 5 5 5 6 7 8 7 7 7 6 6 5 7 9 11
1 4 3 3 1 1 4 6 3 3 5 5 3 5 7 7 7 8 7 7 8 8 9 9 11 12 11 11 10 9 8 8 7 9 7 6 6 6 8 7 8 7 7 7 7 5 7 9 11
3 5 3 3 3 6 5 7 6 10 11 8 5 7 7 6 7 7 7 8 8 10 11 9 10 13 14 13 11 10 9 8 9 8 9 8 8 7 10 9 8 8 8 7 6 5 7 8 9
3 1 5 4 4 4 4 9 6 15 14 8 7 7 7 7 7 7 8 9 11 10 10 13 11 12 13 11 11 11 11 10 9 8 8 8 9 8 10 10 9 9 9 7 6 6 7 8 10
1 2 5 5 5 1 4 12 4 8 10 8 6 6 6 7 8 8 10 12 12 13 14 15 15 13 14 15 11 15 14 13 11 9 9 8 9 8 10 9 10 10 10 8 7 7 7 7 9
Wind_Direction
322 340 105 47 51 59 351 346 297 298 331 335 31 98 143 135 130 193 330 176 139 144 160 165 168 173 169 167 162 156 154 150 145 145 137 116 109 82 94 118 103 88 88 78 78 89 102 105 105
332 340 39 73 74 45 302 276 289 246 18 92 83 44 35 332 141 132 111 197 155 148 155 152 171 176 171 172 169 172 169 168 162 165 155 146 161 142 122 36 124 112 92 80 73 88 103 107 105
328 33 74 81 97 96 270 296 292 311 196 152 316 100 162 275 175 183 182 147 141 152 155 163 171 175 172 176 175 175 176 178 175 165 161 177 177 133 110 336 68 99 97 105 75 68 106 100 91
26 11 36 76 37 241 239 309 293 336 346 62 75 357 308 257 70 162 144 138 133 139 138 173 171 172 176 181 183 181 183 176 172 168 157 158 139 101 14 130 175 74 27 30 51 38 108 89 96
33 51 52 63 306 263 276 292 307 0 349 330 351 316 282 38 60 113 138 145 146 149 155 174 175 179 179 180 185 181 180 177 180 177 161 156 149 123 82 343 356 14 345 334 356 338 68 98 66
42 91 57 349 270 291 304 348 298 18 345 323 26 344 300 336 108 155 148 150 150 157 168 182 181 183 185 187 190 185 185 185 181 179 179 172 170 153 124 71 338 328 319 347 336 310 258 117 90
101 75 183 207 249 307 340 327 45 357 328 337 273 9 286 27 347 151 137 128 136 150 161 183 192 190 187 187 193 193 191 189 186 186 185 180 178 173 156 145 318 322 339 326 318 296 1 96 68
99 89 133 265 287 285 345 349 356 35 304 304 335 21 333 317 57 102 91 108 136 160 170 178 180 179 185 189 192 194 193 195 195 192 192 187 191 191 187 193 288 294 304 315 292 267 316 10 27
100 61 316 276 169 292 344 16 311 350 4 340 330 32 335 316 59 63 39 43 33 350 346 175 179 185 189 189 201 199 200 194 193 193 193 193 134 99 79 146 203 245 264 275 284 281 321 19 30
77 96 220 231 239 311 313 1 319 22 356 358 5 7 4 22 48 55 41 28 8 320 317 301 246 263 254 213 213 200 205 207 189 181 183 157 167 170 171 178 206 219 230 258 267 274 7 22 22
102 169 194 295 270 354 310 340 335 3 26 20 348 350 11 37 39 43 32 17 339 319 302 216 222 231 222 230 235 294 267 185 185 191 188 181 170 182 165 167 160 156 103 100 32 16 32 0 19
350 261 219 276 350 338 302 309 65 57 131 310 33 19 39 41 39 35 33 20 11 0 353 346 276 217 206 200 197 198 160 173 233 286 280 1 335 200 190 192 199 195 180 170 152 164 313 5 352
126 324 317 307 318 279 304 65 97 60 17 20 55 46 41 42 37 35 37 32 17 21 1 355 342 252 217 208 187 185 186 200 209 174 175 156 188 225 252 231 208 204 180 184 185 191 219 197 340
321 292 294 313 354 28 18 76 55 30 344 51 47 43 36 41 24 35 29 26 15 8 7 359 18 10 275 224 192 185 180 182 176 182 198 197 194 201 211 223 228 226 203 203 193 190 190 196 152
347 351 345 29 338 21 287 52 1 292 59 56 35 31 40 32 34 29 13 28 7 1 352 17 20 18 27 14 318 220 191 182 196 204 202 199 193 195 202 218 231 220 209 203 193 196 167 178 181
45 48 32 345 7 360 65 55 1 23 74 51 39 30 33 25 27 10 16 21 10 9 9 11 15 20 21 16 12 8 328 267 238 220 214 223 222 209 205 211 219 193 201 196 194 189 203 212 198
7 106 348 328 42 327 25 87 343 7 67 68 43 31 41 29 20 7 6 10 10 10 8 15 11 16 13 12 14 19 18 18 340 313 281 265 243 230 235 239 236 183 199 199 184 201 188 192 210
277 8 302 272 349 54 59 107 33 5 63 77 47 32 38 40 9 344 0 4 3 11 16 13 19 12 4 1 10 20 29 15 13 1 334 298 249 230 214 227 217 198 205 215 214 186 193 198 195
136 161 255 265 25 84 84 135 136 26 65 77 55 35 32 23 322 351 1 1 2 11 16 14 20 6 23 359 5 3 359 346 0 357 2 360 330 271 236 246 231 191 199 222 204 192 192 213 160
184 280 287 294 15 97 192 162 192 217 239 162 119 67 27 2 347 347 347 358 5 3 4 5 10 9 16 17 322 277 295 310 304 331 338 350 348 351 292 242 231 209 220 206 188 187 204 215 181
292 198 198 229 29 47 128 266 206 211 180 256 306 306 295 297 318 329 333 324 339 354 345 345 349 343 357 4 352 349 345 336 337 335 321 329 340 346 347 313 264 230 213 229 195 193 192 221 197
310 184 311 234 67 243 180 287 225 204 196 235 281 302 291 299 314 302 310 316 316 312 327 337 333 330 341 353 2 358 296 288 259 265 286 307 322 328 330 329 319 272 228 231 218 211 206 179 195
233 354 254 210 190 80 224 121 288 135 207 203 289 334 318 288 273 273 282 289 296 300 315 317 315 315 313 317 299 295 296 254 274 297 309 308 305 310 309 313 310 303 277 248 239 229 214 208 210
302 39 51 58 99 1 219 149 240 189 185 170 260 336 327 316 299 289 277 291 296 317 319 318 314 297 296 302 303 290 278 288 301 301 302 289 291 294 296 292 284 275 266 256 245 238 218 224 229
37 38 339 355 8 235 286 311 258 196 153 161 175 300 302 303 307 308 276 293 312 317 315 315 310 294 293 298 296 291 285 276 259 262 265 283 279 277 282 280 276 274 267 263 249 243 235 225 224
53 117 138 264 259 284 320 240 274 171 177 168 110 302 298 308 296 300 282 285 299 308 307 306 300 286 279 279 279 279 272 258 262 255 259 255 252 259 269 271 263 269 278 271 259 245 246 235 233
115 56 151 104 8 0 256 289 317 162 199 202 280 310 293 296 297 290 287 296 293 289 284 279 283 283 274 272 278 275 273 262 252 257 251 247 257 259 259 256 249 256 264 267 269 257 260 248 237
90 150 58 19 273 272 284 282 237 202 212 220 257 275 282 276 309 316 299 287 285 278 279 280 279 275 273 273 268 267 256 257 259 258 254 249 255 257 270 271 254 253 254 259 263 267 268 254 245
23 34 58 125 156 213 294 263 221 202 198 195 237 256 275 285 285 285 277 272 276 281 279 282 286 279 280 274 270 272 273 264 260 251 257 244 249 241 244 253 257 247 246 249 247 261 271 270 259
209 220 150 135 223 163 147 269 294 227 172 182 237 280 268 259 270 272 285 295 289 284 286 285 286 281 282 283 281 287 285 282 261 251 253 241 240 239 241 243 245 246 242 240 245 254 266 268 276